| time (UTC) | temp C | wind direction | speed KPH | gust KPH | rain 1hr cm | rain 24hr cm | rain mn cm | humidity % | barometer mb |
| 20260506200101 | 30 | 0 | 0.0 | 11.3 | 0.00 | 0.00 | 0.00 | 76 | 1008.9 |
| 20260506194551 | 30 | 0 | 0.0 | 3.2 | 0.00 | 0.00 | 0.00 | 78 | 1009.1 |
| 20260506193051 | 30 | 0 | 0.0 | 6.4 | 0.00 | 0.00 | 0.00 | 79 | 1009.4 |
| 20260506191554 | 29 | 0 | 0.0 | 4.8 | 0.00 | 0.00 | 0.00 | 79 | 1009.5 |
| 20260506190055 | 29 | 236 | 4.8 | 9.7 | 0.00 | 0.00 | 0.00 | 79 | 1009.6 |
| 20260506184558 | 29 | 202 | 3.2 | 11.3 | 0.00 | 0.00 | 0.00 | 79 | 1009.8 |
| 20260506183059 | 29 | 181 | 0.0 | 12.9 | 0.00 | 0.00 | 0.00 | 79 | 1009.9 |
| 20260506181556 | 28 | 233 | 4.8 | 11.3 | 0.00 | 0.00 | 0.00 | 81 | 1010.0 |
| 20260506180055 | 28 | 274 | 4.8 | 14.5 | 0.00 | 0.00 | 0.00 | 83 | 1010.2 |
| 20260506174606 | 28 | 281 | 1.6 | 12.9 | 0.00 | 0.00 | 0.00 | 82 | 1010.4 |
| 20260506173056 | 28 | 0 | 3.2 | 14.5 | 0.00 | 0.00 | 0.00 | 83 | 1010.4 |
| 20260506171557 | 28 | 207 | 1.6 | 9.7 | 0.00 | 0.00 | 0.00 | 84 | 1010.5 |
| 20260506170054 | 27 | 270 | 1.6 | 11.3 | 0.00 | 0.00 | 0.00 | 84 | 1010.4 |
| 20260506164553 | 27 | 253 | 3.2 | 12.9 | 0.00 | 0.00 | 0.00 | 84 | 1010.4 |
| 20260506163109 | 27 | 280 | 3.2 | 11.3 | 0.00 | 0.00 | 0.00 | 86 | 1010.2 |
| 20260506161546 | 27 | 0 | 1.6 | 9.7 | 0.00 | 0.00 | 0.00 | 85 | 1010.0 |
| 20260506160053 | 27 | 0 | 0.0 | 11.3 | 0.00 | 0.00 | 0.00 | 87 | 1009.7 |
| 20260506154554 | 26 | 0 | 0.0 | 11.3 | 0.00 | 0.00 | 0.00 | 88 | 1009.6 |
| 20260506153052 | 26 | 0 | 0.0 | 11.3 | 0.00 | 0.00 | 0.00 | 89 | 1009.4 |
| 20260506151551 | 26 | 0 | 0.0 | 4.8 | 0.00 | 0.00 | 0.00 | 90 | 1009.5 |
| 20260506150052 | 26 | 0 | 0.0 | 9.7 | 0.00 | 0.00 | 0.00 | 90 | 1009.3 |
| 20260506144551 | 26 | 0 | 0.0 | 11.3 | 0.00 | 0.00 | 0.00 | 91 | 1009.1 |
| 20260506143051 | 25 | 302 | 0.0 | 8.0 | 0.00 | 0.00 | 0.00 | 93 | 1008.9 |
| 20260506141549 | 25 | 0 | 0.0 | 4.8 | 0.00 | 0.00 | 0.00 | 94 | 1009.0 |
| 20260506140052 | 24 | 205 | 0.0 | 8.0 | 0.00 | 0.00 | 0.00 | 95 | 1009.1 |
| 20260506134555 | 24 | 208 | 0.0 | 6.4 | 0.00 | 0.00 | 0.00 | 96 | 1008.8 |
| 20260506133052 | 24 | 0 | 0.0 | 3.2 | 0.00 | 0.00 | 0.00 | 96 | 1008.9 |
| 20260506131556 | 24 | 0 | 0.0 | 0.0 | 0.00 | 0.00 | 0.00 | 96 | 1009.1 |
| 20260506130054 | 23 | 0 | 0.0 | 0.0 | 0.00 | 0.00 | 0.00 | 96 | 1009.0 |
| 20260506124558 | 23 | 0 | 0.0 | 0.0 | 0.00 | 0.00 | 0.00 | 96 | 1009.1 |
| 20260506123110 | 23 | 0 | 0.0 | 3.2 | 0.00 | 0.00 | 0.00 | 96 | 1008.9 |
| 20260506121611 | 23 | 0 | 0.0 | 0.0 | 0.00 | 0.00 | 0.00 | 96 | 1009.0 |
| 20260506120051 | 23 | 0 | 0.0 | 0.0 | 0.00 | 0.00 | 0.00 | 96 | 1008.8 |
| 20260506114552 | 23 | 0 | 0.0 | 0.0 | 0.00 | 0.00 | 0.00 | 96 | 1008.7 |
| 20260506113050 | 23 | 0 | 0.0 | 0.0 | 0.00 | 0.00 | 0.00 | 96 | 1008.6 |
| 20260506111552 | 23 | 0 | 0.0 | 8.0 | 0.00 | 0.00 | 0.00 | 96 | 1008.5 |
| 20260506110101 | 23 | 0 | 0.0 | 4.8 | 0.00 | 0.00 | 0.00 | 95 | 1008.4 |
| 20260506104548 | 24 | 0 | 0.0 | 0.0 | 0.00 | 0.00 | 0.00 | 95 | 1008.3 |
| 20260506103047 | 23 | 0 | 0.0 | 0.0 | 0.00 | 0.00 | 0.00 | 95 | 1008.3 |
| 20260506101603 | 24 | 0 | 0.0 | 0.0 | 0.00 | 0.00 | 0.00 | 95 | 1008.5 |
| 20260506100048 | 24 | 0 | 0.0 | 1.6 | 0.00 | 0.00 | 0.00 | 95 | 1008.5 |
| 20260506094553 | 24 | 0 | 0.0 | 0.0 | 0.00 | 0.00 | 0.00 | 95 | 1008.4 |
| 20260506093051 | 24 | 0 | 0.0 | 0.0 | 0.00 | 0.00 | 0.00 | 95 | 1008.6 |
| 20260506091552 | 24 | 0 | 0.0 | 0.0 | 0.00 | 0.00 | 0.00 | 94 | 1008.5 |
| 20260506084557 | 24 | 0 | 0.0 | 0.0 | 0.00 | 0.00 | 0.00 | 94 | 1008.4 |
| 20260506083053 | 24 | 0 | 0.0 | 1.6 | 0.00 | 0.00 | 0.00 | 94 | 1008.4 |
| 20260506081549 | 24 | 0 | 0.0 | 0.0 | 0.00 | 0.00 | 0.00 | 94 | 1008.3 |
| 20260506073050 | 24 | 0 | 0.0 | 0.0 | 0.00 | 0.00 | 0.00 | 94 | 1008.7 |
| 20260506071557 | 24 | 0 | 0.0 | 0.0 | 0.00 | 0.00 | 0.00 | 93 | 1008.8 |
| 20260506061551 | 25 | 0 | 0.0 | 8.0 | 0.00 | 0.00 | 0.00 | 91 | 1009.2 |
| 20260506050112 | 25 | 0 | 4.8 | 14.5 | 0.00 | 0.00 | 0.00 | 90 | 1009.3 |
| 20260506044551 | 25 | 276 | 1.6 | 19.3 | 0.00 | 0.00 | 0.00 | 90 | 1009.2 |
| 20260506043050 | 25 | 234 | 3.2 | 16.1 | 0.00 | 0.00 | 0.00 | 90 | 1008.9 |
| 20260506041601 | 25 | 0 | 1.6 | 16.1 | 0.00 | 0.00 | 0.00 | 90 | 1008.9 |
| 20260506040053 | 25 | 0 | 1.6 | 11.3 | 0.00 | 0.00 | 0.00 | 90 | 1008.8 |
| 20260506034554 | 25 | 276 | 4.8 | 16.1 | 0.00 | 0.00 | 0.00 | 89 | 1008.4 |
| 20260506033051 | 25 | 220 | 0.0 | 12.9 | 0.00 | 0.00 | 0.00 | 89 | 1008.3 |
| 20260506031551 | 25 | 0 | 1.6 | 12.9 | 0.00 | 0.00 | 0.00 | 89 | 1008.3 |
| 20260506030050 | 25 | 221 | 1.6 | 14.5 | 0.00 | 0.00 | 0.00 | 89 | 1008.3 |
| 20260506024550 | 25 | 281 | 4.8 | 14.5 | 0.00 | 0.00 | 0.00 | 89 | 1008.0 |
| 20260506023107 | 25 | 189 | 3.2 | 14.5 | 0.00 | 0.00 | 0.00 | 89 | 1007.8 |
| 20260506021554 | 25 | 201 | 3.2 | 12.9 | 0.00 | 0.00 | 0.00 | 89 | 1007.4 |
| 20260506020052 | 25 | 228 | 6.4 | 16.1 | 0.00 | 0.00 | 0.00 | 89 | 1007.2 |
| 20260506014551 | 25 | 189 | 3.2 | 16.1 | 0.00 | 0.00 | 0.00 | 88 | 1007.3 |
| 20260506013054 | 25 | 0 | 4.8 | 20.9 | 0.00 | 0.00 | 0.00 | 87 | 1007.1 |
| 20260506011551 | 26 | 245 | 6.4 | 14.5 | 0.00 | 0.00 | 0.00 | 86 | 1007.1 |
| 20260506010054 | 26 | 8.0 | 19.3 | 0.00 | 0.00 | 0.00 | 85 | 1006.8 | |
| 20260506004557 | 26 | 256 | 4.8 | 20.9 | 0.00 | 0.00 | 0.00 | 84 | 1006.6 |
| 20260506003050 | 26 | 279 | 3.2 | 17.7 | 0.00 | 0.00 | 0.00 | 83 | 1006.6 |
| 20260506001554 | 26 | 289 | 11.3 | 25.7 | 0.00 | 0.00 | 0.00 | 82 | 1006.5 |
| 20260506000058 | 27 | 214 | 9.7 | 27.4 | 0.00 | 0.00 | 0.00 | 82 | 1006.4 |
| 20260505234550 | 27 | 228 | 9.7 | 20.9 | 0.00 | 0.00 | 0.00 | 81 | 1006.3 |
| 20260505233056 | 27 | 172 | 4.8 | 20.9 | 0.00 | 0.00 | 0.00 | 80 | 1006.3 |
| 20260505231555 | 27 | 11.3 | 24.1 | 0.00 | 0.00 | 0.00 | 80 | 1006.1 | |
| 20260505230113 | 27 | 278 | 6.4 | 17.7 | 0.00 | 0.00 | 0.00 | 80 | 1006.2 |
| 20260505224551 | 27 | 293 | 9.7 | 27.4 | 0.00 | 0.00 | 0.00 | 79 | 1006.4 |
| 20260505223052 | 28 | 259 | 9.7 | 22.5 | 0.00 | 0.00 | 0.00 | 78 | 1006.5 |
| 20260505221555 | 28 | 0 | 8.0 | 29.0 | 0.00 | 0.00 | 0.00 | 78 | 1006.7 |
| 20260505220056 | 28 | 191 | 4.8 | 22.5 | 0.00 | 0.00 | 0.00 | 76 | 1006.6 |
| 20260505214549 | 28 | 277 | 1.6 | 19.3 | 0.00 | 0.00 | 0.00 | 76 | 1006.6 |
| 20260505213052 | 28 | 291 | 8.0 | 19.3 | 0.00 | 0.00 | 0.00 | 76 | 1006.7 |
| 20260505211559 | 29 | 301 | 9.7 | 22.5 | 0.00 | 0.00 | 0.00 | 75 | 1007.0 |
| 20260505210058 | 30 | 244 | 6.4 | 19.3 | 0.00 | 0.00 | 0.00 | 74 | 1007.2 |
| 20260505204549 | 29 | 254 | 8.0 | 19.3 | 0.00 | 0.00 | 0.00 | 75 | 1007.4 |
| 20260505203106 | 29 | 278 | 8.0 | 24.1 | 0.00 | 0.00 | 0.00 | 76 | 1007.5 |
| 20260505201549 | 30 | 249 | 9.7 | 17.7 | 0.00 | 0.00 | 0.00 | 73 | 1007.6 |